TimeEDT,TemperatureF,Dew PointF,Humidity,Sea Level PressureIn,VisibilityMPH,Wind Direction,Wind SpeedMPH,Gust SpeedMPH,PrecipitationIn,Events,Conditions,WindDirDegrees,DateUTC
12:54 AM,62.1,61.0,96,30.07,6.0,Calm,Calm,-,N/A,,Clear,0,2013-08-20 04:54:00
1:54 AM,62.1,60.1,93,30.06,7.0,SW,3.5,-,N/A,,Clear,220,2013-08-20 05:54:00
2:27 AM,60.8,59.0,94,30.07,2.0,Calm,Calm,-,N/A,,Clear,0,2013-08-20 06:27:00
2:37 AM,62.6,60.8,94,30.07,4.0,Calm,Calm,-,N/A,,Clear,0,2013-08-20 06:37:00
2:54 AM,61.0,60.1,97,30.06,5.0,Calm,Calm,-,N/A,,Clear,0,2013-08-20 06:54:00
3:04 AM,60.8,60.8,100,30.06,1.8,Calm,Calm,-,N/A,,Partly Cloudy,0,2013-08-20 07:04:00
3:22 AM,60.8,57.2,88,30.06,3.0,SSW,3.5,-,N/A,,Scattered Clouds,200,2013-08-20 07:22:00
3:43 AM,59.0,57.2,94,30.06,1.5,SSW,3.5,-,0.00,Rain,Light Rain,200,2013-08-20 07:43:00
3:50 AM,60.8,59.0,94,30.06,0.8,Calm,Calm,-,0.00,Rain,Light Rain,0,2013-08-20 07:50:00
3:51 AM,60.8,59.0,94,30.06,1.0,Calm,Calm,-,0.00,,Mist,0,2013-08-20 07:51:00
3:54 AM,60.1,57.9,93,30.06,1.8,Calm,Calm,-,0.00,,Partly Cloudy,0,2013-08-20 07:54:00
4:01 AM,60.8,59.0,94,30.06,0.8,SSW,3.5,-,N/A,,Mist,200,2013-08-20 08:01:00
4:12 AM,59.0,57.2,94,30.06,2.0,SW,3.5,-,N/A,,Scattered Clouds,220,2013-08-20 08:12:00
4:26 AM,60.8,59.0,94,30.07,3.0,South,3.5,-,N/A,,Partly Cloudy,190,2013-08-20 08:26:00
4:52 AM,57.2,57.2,100,30.07,1.8,Calm,Calm,-,N/A,,Partly Cloudy,0,2013-08-20 08:52:00
4:54 AM,59.0,57.9,96,30.07,1.2,Calm,Calm,-,N/A,,Partly Cloudy,0,2013-08-20 08:54:00
5:09 AM,59.0,57.2,94,30.07,3.0,Calm,Calm,-,N/A,,Scattered Clouds,0,2013-08-20 09:09:00
5:17 AM,57.2,57.2,100,30.07,2.5,Calm,Calm,-,N/A,,Scattered Clouds,0,2013-08-20 09:17:00
5:20 AM,57.2,57.2,100,30.07,1.0,Calm,Calm,-,N/A,,Mist,0,2013-08-20 09:20:00
5:27 AM,57.2,55.4,94,30.08,0.5,Calm,Calm,-,N/A,Fog,Fog,0,2013-08-20 09:27:00
5:31 AM,57.2,55.4,94,30.08,1.2,South,3.5,-,N/A,,Partly Cloudy,180,2013-08-20 09:31:00
5:37 AM,57.2,57.2,100,30.08,0.8,South,3.5,-,N/A,,Mist,190,2013-08-20 09:37:00
5:47 AM,57.2,55.4,94,30.08,1.2,Variable,3.5,-,N/A,,Scattered Clouds,0,2013-08-20 09:47:00
5:50 AM,57.2,55.4,94,30.08,3.0,Variable,3.5,-,N/A,,Scattered Clouds,0,2013-08-20 09:50:00
5:54 AM,59.0,57.0,93,30.08,4.0,Calm,Calm,-,N/A,,Scattered Clouds,0,2013-08-20 09:54:00
6:54 AM,59.0,57.9,96,30.10,3.0,Calm,Calm,-,N/A,,Clear,0,2013-08-20 10:54:00
7:54 AM,64.0,62.1,93,30.12,5.0,South,3.5,-,N/A,,Clear,190,2013-08-20 11:54:00
8:54 AM,69.1,64.9,87,30.13,10.0,SSW,3.5,-,N/A,,Clear,200,2013-08-20 12:54:00
9:54 AM,75.0,64.9,71,30.13,10.0,Calm,Calm,-,N/A,,Clear,0,2013-08-20 13:54:00
10:54 AM,78.1,63.0,60,30.14,10.0,Calm,Calm,-,N/A,,Clear,0,2013-08-20 14:54:00
11:54 AM,81.0,60.1,49,30.13,10.0,SSW,3.5,-,N/A,,Clear,210,2013-08-20 15:54:00
12:54 PM,82.0,60.1,47,30.12,10.0,Calm,Calm,-,N/A,,Clear,0,2013-08-20 16:54:00
1:54 PM,82.0,59.0,45,30.10,10.0,WSW,4.6,-,N/A,,Partly Cloudy,250,2013-08-20 17:54:00
2:54 PM,84.0,60.1,44,30.09,10.0,West,8.1,-,N/A,,Partly Cloudy,270,2013-08-20 18:54:00
3:54 PM,84.0,60.1,44,30.08,10.0,WSW,8.1,-,N/A,,Partly Cloudy,240,2013-08-20 19:54:00
4:54 PM,84.0,63.0,49,30.08,10.0,WNW,5.8,-,N/A,,Scattered Clouds,290,2013-08-20 20:54:00
5:54 PM,82.9,64.9,54,30.08,10.0,WNW,3.5,-,N/A,,Partly Cloudy,300,2013-08-20 21:54:00
6:54 PM,79.0,66.9,66,30.08,10.0,Calm,Calm,-,N/A,,Clear,0,2013-08-20 22:54:00
7:54 PM,72.0,66.9,84,30.09,10.0,Calm,Calm,-,N/A,,Clear,0,2013-08-20 23:54:00
8:03 PM,71.6,66.2,83,30.10,10.0,Calm,Calm,-,N/A,,Partly Cloudy,0,2013-08-21 00:03:00
8:54 PM,68.0,64.9,90,30.11,10.0,Calm,Calm,-,N/A,,Clear,0,2013-08-21 00:54:00
9:54 PM,66.0,64.0,93,30.12,10.0,Calm,Calm,-,0.00,,Clear,0,2013-08-21 01:54:00
10:54 PM,64.9,63.0,93,30.13,7.0,Calm,Calm,-,N/A,,Clear,0,2013-08-21 02:54:00
11:54 PM,63.0,61.0,93,30.14,7.0,Calm,Calm,-,0.00,,Clear,0,2013-08-21 03:54:00